Home > Weather > Tiruchirappalli > Past weeks

Flag for India Past Weather in Tiruchirappalli, Tamil Nadu, India — Yesterday and Last 2 Weeks

Now
88 °F

Scattered clouds.


Feels Like: 93 °F
Forecast: 78 / 93 °F
Wind: 12 mph from West

Location: Tiruchchirapalli

Current Time: Jul 24, 2016 at 10:36:43 AM

Latest Report: Jul 24, 2016 at 10:00 AM


Visibility: 4 mi

Pressure: 29.71 "Hg

Humidity: 55%

Dew Point: 70 °F

Location of TiruchirappalliLocation

Past Weather in Tiruchirappalli — Graph

°F

Tiruchirappalli Temperature Yesterday

Maximum temperature yesterday: 91 °F (at 3:30 PM)
Minimum temperature yesterday: 81 °F (at 6:00 AM)
Average temperature yesterday: 86 °F

High & Low Weather Summary for the Past Weeks

 TemperatureHumidityPressure
High100 °F (Jul 13, 2:00 PM)100% (Jul 17, 8:30 PM)29.86 "Hg (Jul 17, 8:30 PM)
Low73 °F (Jul 15, 10:00 PM)29% (Jul 14, 5:30 PM)29.56 "Hg (Jul 14, 4:30 PM)
Average87 °F58%29.72 "Hg
* Reported Jul 9 9:30 AM — Jul 24 9:30 AM, Tiruchirappalli, Weather by CustomWeather, © 2016

Note: Actual official high and low records may vary slightly from our data, if they occured in-between our weather recording intervals... More about our weather records

Advertising

Tiruchirappalli Weather History for the Previous 24 Hours

Scroll right to see more
 ConditionsComfort  
Time TempWeatherWind HumidityBarometerVisibility
9:30 AM
Sun, Jul 24
86 °FScattered clouds.14 mph59%29.74 "Hg4 mi
9:00 AM86 °FScattered clouds.12 mph59%29.74 "Hg4 mi
8:30 AM84 °FScattered clouds.12 mph62%29.74 "Hg4 mi
8:00 AM84 °FScattered clouds.10 mph66%29.74 "Hg4 mi
7:30 AM82 °FScattered clouds.8 mph70%29.71 "Hg4 mi
7:00 AM81 °FScattered clouds.6 mph74%29.71 "Hg4 mi
6:30 AM81 °FPassing clouds.7 mph70%29.71 "Hg4 mi
6:00 AM81 °FPassing clouds.7 mph70%29.68 "Hg4 mi
5:30 AM81 °FPassing clouds.7 mph70%29.68 "Hg4 mi
5:00 AM81 °FPassing clouds.8 mph70%29.68 "Hg4 mi
4:30 AM81 °FPassing clouds.8 mph70%29.68 "Hg4 mi
4:00 AM81 °FPartly cloudy.8 mph70%29.68 "Hg4 mi
3:30 AM81 °FPartly cloudy.8 mph70%29.68 "Hg4 mi
3:00 AM81 °FPartly cloudy.9 mph70%29.71 "Hg4 mi
2:30 AM81 °FPartly cloudy.10 mph70%29.71 "Hg4 mi
2:00 AM82 °FPassing clouds.12 mph62%29.71 "Hg4 mi
1:30 AM82 °FPassing clouds.9 mph62%29.71 "Hg4 mi
1:00 AM82 °FPassing clouds.10 mph62%29.71 "Hg4 mi
12:30 AM82 °FPassing clouds.12 mph62%29.71 "Hg4 mi
12:00 AM82 °FPassing clouds.12 mph62%29.71 "Hg4 mi
11:30 PM
Sat, Jul 23
82 °FPassing clouds.12 mph62%29.71 "Hg4 mi
11:00 PM84 °FPartly cloudy.13 mph58%29.71 "Hg4 mi
10:30 PM84 °FPartly cloudy.12 mph62%29.71 "Hg4 mi
10:00 PM84 °FPartly cloudy.12 mph58%29.71 "Hg4 mi
9:30 PM86 °FPartly cloudy.12 mph55%29.71 "Hg4 mi
9:00 PM86 °FPartly cloudy.12 mph55%29.71 "Hg4 mi
8:30 PM86 °FPartly cloudy.10 mph55%29.71 "Hg4 mi
8:00 PM88 °FPartly cloudy.8 mph52%29.68 "Hg4 mi
7:30 PM88 °FPartly cloudy.9 mph55%29.68 "Hg4 mi
7:00 PM90 °FBroken clouds.7 mph52%29.68 "Hg4 mi
6:30 PM90 °FBroken clouds.12 mph49%29.65 "Hg4 mi
6:00 PM90 °FBroken clouds.8 mph49%29.65 "Hg4 mi
5:30 PM91 °FBroken clouds.8 mph46%29.65 "Hg4 mi
5:00 PM91 °FBroken clouds.9 mph46%29.65 "Hg4 mi
4:30 PM91 °FBroken clouds.9 mph46%29.62 "Hg4 mi
4:00 PM91 °FBroken clouds.8 mph46%29.62 "Hg4 mi
3:30 PM91 °FBroken clouds.8 mph46%29.65 "Hg4 mi
3:00 PM90 °FBroken clouds.7 mph49%29.65 "Hg4 mi
2:30 PM90 °FBroken clouds.9 mph49%29.65 "Hg4 mi
2:00 PM90 °FBroken clouds.9 mph49%29.65 "Hg4 mi
1:30 PM90 °FBroken clouds.13 mph49%29.68 "Hg4 mi
1:00 PM90 °FBroken clouds.14 mph49%29.68 "Hg4 mi
12:30 PM88 °FBroken clouds.12 mph52%29.68 "Hg4 mi
12:00 PM88 °FBroken clouds.10 mph52%29.71 "Hg4 mi
11:30 AM86 °FBroken clouds.10 mph55%29.71 "Hg4 mi
11:00 AM86 °FBroken clouds.10 mph55%29.71 "Hg4 mi
10:30 AM86 °FBroken clouds.8 mph59%29.74 "Hg4 mi
10:00 AM84 °FBroken clouds.10 mph62%29.74 "Hg4 mi
Weather by CustomWeather, © 2016

See weather overviewHow to use our weather pages